Location: Kawakawa
(35.3830°S, 174.0670°E)
Time: 16:24:59
(UTC+13:00)

A-11 Canister half - Pass Details

Date: 11 December 2019
Orbit: 1525 x 1684 km, 47.3° (Epoch: 27 January)

Event Time Altitude Azimuth Distance (km) Brightness Sun altitude
Rises 22:48:28 0° 247° (WSW) 4,691 12.5 -21.9°
Reaches altitude 10° 22:51:46 10° 240° (WSW) 3,712 11.9 -22.3°
Maximum altitude 23:00:33 42° 170° (S) 2,089 10.0 -23.3°
Drops below altitude 10° 23:09:29 10° 101° (E) 3,780 10.8 -24.3°
Sets 23:12:52 0° 93° (E) 4,784 11.3 -24.7°
